Location: New Canada
(47.1017°N, 68.5042°W)
Time: 04:51:04
(UTC+00:00)

Gurwin Techsat 1B - Visible Passes

Search period start: 23 March 2023 00:00
Search period end: 02 April 2023 00:00
Orbit: 811 x 814 km, 98.9° (Epoch: 22 March)

Date Brightness Start Highest point End Pass type
(mag) Time Alt. Az. Time Alt. Az. Time Alt. Az.
23 Mar 9.2 07:13:55 10° NNE 07:18:55 54° E 07:18:55 54° E visible
23 Mar 9.8 08:54:27 10° N 08:58:43 25° WNW 09:00:07 22° W visible
24 Mar 9.9 06:51:09 10° NNE 06:55:44 34° E 06:55:44 34° E visible
24 Mar 9.2 08:31:03 10° N 08:35:55 37° WNW 08:36:56 34° W visible
25 Mar 10.5 06:28:37 10° NE 06:32:34 23° E 06:32:34 23° E visible
25 Mar 8.7 08:07:48 10° N 08:13:01 56° WNW 08:13:46 51° WSW visible
25 Mar 10.7 09:51:18 10° NW 09:51:48 10° NW 09:52:18 10° NW visible
26 Mar 11.0 06:06:37 10° NE 06:09:23 14° E 06:09:23 14° E visible
26 Mar 8.4 07:44:41 10° NNE 07:50:03 85° WNW 07:50:35 73° SSW visible
26 Mar 10.4 09:26:12 10° NNW 09:29:10 15° NW 09:31:47 11° W visible
27 Mar 8.8 07:21:42 10° NNE 07:27:00 63° ESE 07:27:24 60° SE visible
27 Mar 9.9 09:02:26 10° N 09:06:27 22° WNW 09:08:36 17° W visible
28 Mar 9.6 06:58:52 10° NNE 07:03:52 40° E 07:04:14 39° ESE visible
28 Mar 9.4 08:38:59 10° N 08:43:40 32° WNW 08:45:26 26° W visible
29 Mar 10.2 06:36:15 10° NE 06:40:40 26° E 06:41:03 26° E visible
29 Mar 8.9 08:15:41 10° N 08:20:48 49° WNW 08:22:15 38° WSW visible
30 Mar 10.8 06:14:01 10° NE 06:17:23 17° E 06:17:52 17° E visible
30 Mar 8.5 07:52:32 10° NNE 07:57:51 75° WNW 07:59:04 53° SW visible
30 Mar 10.5 09:34:23 10° NNW 09:36:53 13° NW 09:39:21 10° W visible
31 Mar 11.3 05:53:39 10° E 05:54:00 10° E 05:54:21 10° E visible
31 Mar 8.7 07:29:29 10° NNE 07:34:50 72° ESE 07:35:53 56° SSE visible
31 Mar 10.1 09:10:28 10° NNW 09:14:12 20° WNW 09:17:06 13° W visible
01 Apr 9.4 07:06:36 10° NNE 07:11:44 46° E 07:12:42 41° SE visible
01 Apr 9.6 08:46:55 10° N 08:51:25 29° WNW 08:53:55 20° WSW visible
